| time (UTC) | temp C | wind direction | speed KPH | gust KPH | rain 1hr cm | rain 24hr cm | rain mn cm | humidity % | barometer mb |
| 20260507232142 | 12 | 359 | 1.6 | 8.0 | 0.00 | 0.00 | 0.00 | 42 | 1019.3 |
| 20260507231142 | 12 | 132 | 1.6 | 6.4 | 0.00 | 0.00 | 0.00 | 40 | 1019.4 |
| 20260507230140 | 11 | 129 | 6.4 | 14.5 | 0.00 | 0.00 | 0.00 | 41 | 1019.4 |
| 20260507225140 | 11 | 228 | 1.6 | 8.0 | 0.00 | 0.00 | 0.00 | 59 | 1019.3 |
| 20260507224141 | 11 | 199 | 0.0 | 3.2 | 0.00 | 0.00 | 0.00 | 49 | 1019.3 |
| 20260507223140 | 10 | 194 | 0.0 | 3.2 | 0.00 | 0.00 | 0.00 | 55 | 1019.4 |
| 20260507222627 | 10 | 218 | 0.0 | 0.0 | 0.00 | 0.00 | 0.00 | 59 | 1019.5 |
| 20260507221626 | 9 | 218 | 0.0 | 0.0 | 0.00 | 0.00 | 0.00 | 62 | 1019.7 |
| 20260507220140 | 10 | 218 | 0.0 | 0.0 | 0.00 | 0.00 | 0.00 | 58 | 1019.7 |
| 20260507215611 | 11 | 218 | 1.6 | 3.2 | 0.00 | 0.00 | 0.00 | 51 | 1019.8 |
| 20260507214139 | 11 | 224 | 1.6 | 4.8 | 0.00 | 0.00 | 0.00 | 41 | 1019.9 |
| 20260507213138 | 11 | 162 | 1.6 | 9.7 | 0.00 | 0.00 | 0.00 | 44 | 1020.1 |
| 20260507212139 | 11 | 152 | 4.8 | 14.5 | 0.00 | 0.00 | 0.00 | 41 | 1020.1 |
| 20260507211138 | 11 | 160 | 3.2 | 11.3 | 0.00 | 0.00 | 0.00 | 46 | 1020.1 |
| 20260507210136 | 11 | 140 | 4.8 | 12.9 | 0.00 | 0.00 | 0.00 | 40 | 1020.1 |
| 20260507205136 | 12 | 141 | 4.8 | 12.9 | 0.00 | 0.00 | 0.00 | 41 | 1019.9 |
| 20260507204136 | 12 | 122 | 3.2 | 16.1 | 0.00 | 0.00 | 0.00 | 40 | 1020.2 |
| 20260507203136 | 13 | 249 | 3.2 | 9.7 | 0.00 | 0.03 | 0.00 | 38 | 1020.2 |
| 20260507202134 | 12 | 318 | 3.2 | 11.3 | 0.00 | 0.03 | 0.00 | 44 | 1020.4 |
| 20260507201133 | 12 | 193 | 3.2 | 12.9 | 0.00 | 0.03 | 0.00 | 41 | 1020.7 |
| 20260507200133 | 11 | 256 | 4.8 | 11.3 | 0.00 | 0.03 | 0.00 | 44 | 1020.8 |
| 20260507195131 | 11 | 147 | 4.8 | 16.1 | 0.00 | 0.03 | 0.00 | 40 | 1020.8 |
| 20260507194132 | 11 | 32 | 6.4 | 16.1 | 0.00 | 0.03 | 0.00 | 40 | 1020.8 |
| 20260507193132 | 10 | 151 | 0.0 | 11.3 | 0.00 | 0.03 | 0.00 | 47 | 1021.0 |
| 20260507192131 | 10 | 326 | 3.2 | 8.0 | 0.00 | 0.03 | 0.00 | 52 | 1021.0 |
| 20260507191132 | 10 | 201 | 3.2 | 9.7 | 0.00 | 0.03 | 0.00 | 50 | 1020.7 |
| 20260507190134 | 10 | 359 | 3.2 | 12.9 | 0.00 | 0.03 | 0.00 | 46 | 1021.0 |
| 20260507185132 | 10 | 139 | 6.4 | 12.9 | 0.00 | 0.03 | 0.00 | 47 | 1021.1 |
| 20260507184132 | 10 | 148 | 6.4 | 24.1 | 0.00 | 0.03 | 0.00 | 43 | 1021.2 |
| 20260507183131 | 11 | 169 | 3.2 | 9.7 | 0.00 | 0.03 | 0.00 | 45 | 1021.3 |
| 20260507182619 | 10 | 152 | 4.8 | 9.7 | 0.00 | 0.03 | 0.00 | 44 | 1021.2 |
| 20260507181132 | 10 | 178 | 3.2 | 11.3 | 0.00 | 0.03 | 0.00 | 47 | 1021.3 |
| 20260507180610 | 10 | 122 | 4.8 | 12.9 | 0.00 | 0.05 | 0.00 | 48 | 1021.6 |
| 20260507175131 | 10 | 220 | 4.8 | 9.7 | 0.00 | 0.05 | 0.00 | 47 | 1021.5 |
| 20260507174132 | 10 | 163 | 3.2 | 8.0 | 0.00 | 0.08 | 0.00 | 54 | 1021.9 |
| 20260507173133 | 10 | 159 | 0.0 | 4.8 | 0.00 | 0.10 | 0.00 | 67 | 1021.7 |
| 20260507172132 | 10 | 201 | 1.6 | 6.4 | 0.00 | 0.13 | 0.00 | 67 | 1022.0 |
| 20260507171133 | 9 | 183 | 1.6 | 9.7 | 0.00 | 0.15 | 0.00 | 66 | 1022.1 |
| 20260507170133 | 8 | 127 | 1.6 | 6.4 | 0.00 | 0.18 | 0.00 | 75 | 1022.1 |
| 20260507165132 | 7 | 35 | 1.6 | 3.2 | 0.00 | 0.20 | 0.00 | 82 | 1022.2 |
| 20260507164614 | 6 | 349 | 0.0 | 0.0 | 0.00 | 0.23 | 0.00 | 85 | 1022.1 |
| 20260507163131 | 6 | 349 | 0.0 | 0.0 | 0.00 | 0.25 | 0.00 | 87 | 1022.1 |
| 20260507162132 | 5 | 348 | 0.0 | 0.0 | 0.00 | 0.25 | 0.00 | 88 | 1022.0 |
| 20260507161131 | 5 | 348 | 0.0 | 0.0 | 0.00 | 0.25 | 0.00 | 88 | 1022.0 |
| 20260507160131 | 3 | 349 | 0.0 | 0.0 | 0.00 | 0.25 | 0.00 | 88 | 1022.1 |
| 20260507155131 | 3 | 349 | 0.0 | 3.2 | 0.00 | 0.28 | 0.00 | 87 | 1022.1 |
| 20260507154131 | 3 | 359 | 1.6 | 3.2 | 0.00 | 0.28 | 0.00 | 87 | 1022.2 |
| 20260507153132 | 2 | 4 | 1.6 | 3.2 | 0.00 | 0.28 | 0.00 | 88 | 1022.4 |
| 20260507152132 | 2 | 4 | 1.6 | 4.8 | 0.00 | 0.28 | 0.00 | 87 | 1022.4 |
| 20260507151133 | 2 | 4 | 1.6 | 4.8 | 0.00 | 0.30 | 0.00 | 88 | 1022.4 |
| 20260507150132 | 1 | 4 | 1.6 | 3.2 | 0.00 | 0.30 | 0.00 | 88 | 1022.4 |
| 20260507145133 | 1 | 4 | 1.6 | 4.8 | 0.00 | 0.30 | 0.00 | 89 | 1022.2 |
| 20260507144132 | 0 | 4 | 1.6 | 4.8 | 0.00 | 0.33 | 0.00 | 89 | 1022.1 |
| 20260507143131 | 0 | 4 | 0.0 | 0.0 | 0.00 | 0.33 | 0.00 | 89 | 1022.2 |
| 20260507142132 | 0 | 9 | 0.0 | 0.0 | 0.00 | 0.36 | 0.00 | 90 | 1022.1 |
| 20260507141131 | -1 | 8 | 0.0 | 0.0 | 0.00 | 0.36 | 0.00 | 91 | 1022.2 |
| 20260507141047 | -2 | 8 | 0.0 | 0.0 | 0.00 | 0.38 | 0.00 | 91 | 1022.4 |
| 20260507135137 | -3 | 4 | 0.0 | 0.0 | 0.00 | 0.38 | 0.00 | 91 | 1022.5 |
| 20260507135055 | -3 | 4 | 0.0 | 0.0 | 0.00 | 0.41 | 0.00 | 90 | 1022.5 |
| 20260507133136 | -4 | 4 | 0.0 | 0.0 | 0.00 | 0.43 | 0.00 | 91 | 1022.4 |
| 20260507132137 | -5 | 4 | 0.0 | 0.0 | 0.00 | 0.46 | 0.00 | 91 | 1022.5 |
| 20260507131135 | -5 | 4 | 0.0 | 0.0 | 0.00 | 0.46 | 0.00 | 90 | 1022.4 |
| 20260507130544 | -5 | 4 | 0.0 | 0.0 | 0.00 | 0.48 | 0.00 | 90 | 1022.2 |
| 20260507130316 | -5 | 4 | 0.0 | 0.0 | 0.00 | 0.48 | 0.00 | 89 | 1022.2 |
| 20260507124135 | -5 | 4 | 0.0 | 0.0 | 0.00 | 0.51 | 0.00 | 91 | 1022.2 |
| 20260507123136 | -5 | 347 | 0.0 | 0.0 | 0.00 | 0.51 | 0.00 | 90 | 1022.0 |
| 20260507122133 | -6 | 359 | 0.0 | 0.0 | 0.00 | 0.53 | 0.00 | 90 | 1021.9 |
| 20260507121131 | -6 | 359 | 0.0 | 0.0 | 0.00 | 0.53 | 0.00 | 89 | 1021.9 |
| 20260507120132 | -5 | 359 | 0.0 | 0.0 | 0.00 | 0.53 | 0.00 | 90 | 1021.9 |
| 20260507115130 | -5 | 341 | 0.0 | 0.0 | 0.00 | 0.56 | 0.00 | 90 | 1021.9 |
| 20260507114131 | -5 | 341 | 0.0 | 0.0 | 0.00 | 0.58 | 0.00 | 90 | 1021.9 |
| 20260507113129 | -5 | 359 | 0.0 | 0.0 | 0.00 | 0.61 | 0.00 | 90 | 1021.7 |
| 20260507112129 | -5 | 341 | 0.0 | 0.0 | 0.00 | 0.66 | 0.00 | 90 | 1021.9 |
| 20260507111128 | -5 | 341 | 0.0 | 0.0 | 0.00 | 0.66 | 0.00 | 91 | 1021.9 |
| 20260507110128 | -5 | 341 | 0.0 | 0.0 | 0.00 | 0.66 | 0.00 | 90 | 1021.7 |
| 20260507105128 | -5 | 4 | 0.0 | 0.0 | 0.00 | 0.66 | 0.00 | 90 | 1021.6 |
| 20260507105037 | -5 | 4 | 0.0 | 0.0 | 0.00 | 0.66 | 0.00 | 90 | 1021.6 |
| 20260507103124 | -5 | 4 | 0.0 | 0.0 | 0.00 | 0.66 | 0.00 | 90 | 1021.7 |
| 20260507102122 | -5 | 359 | 0.0 | 0.0 | 0.00 | 0.71 | 0.00 | 90 | 1021.7 |
| 20260507101122 | -5 | 4 | 0.0 | 0.0 | 0.00 | 0.71 | 0.00 | 90 | 1021.6 |
| 20260507100122 | -5 | 4 | 0.0 | 0.0 | 0.00 | 0.74 | 0.00 | 91 | 1021.6 |
| 20260507095122 | -5 | 4 | 0.0 | 0.0 | 0.00 | 0.74 | 0.00 | 91 | 1021.7 |
| 20260507094122 | -5 | 4 | 0.0 | 0.0 | 0.00 | 0.74 | 0.00 | 90 | 1021.6 |
| 20260507093608 | -6 | 4 | 0.0 | 0.0 | 0.00 | 0.74 | 0.00 | 90 | 1021.5 |
| 20260507092122 | -6 | 350 | 0.0 | 0.0 | 0.00 | 0.74 | 0.00 | 90 | 1021.6 |
| 20260507091122 | -6 | 354 | 0.0 | 0.0 | 0.00 | 0.76 | 0.00 | 90 | 1021.7 |
| 20260507090116 | -6 | 354 | 0.0 | 0.0 | 0.00 | 0.76 | 0.00 | 91 | 1022.0 |
| 20260507085114 | -7 | 344 | 0.0 | 0.0 | 0.00 | 0.76 | 0.00 | 91 | 1021.7 |
| 20260507084113 | -7 | 324 | 0.0 | 0.0 | 0.00 | 0.76 | 0.00 | 90 | 1021.7 |
| 20260507083114 | -7 | 308 | 0.0 | 0.0 | 0.00 | 0.76 | 0.00 | 90 | 1021.9 |
| 20260507082112 | -7 | 9 | 0.0 | 0.0 | 0.00 | 0.76 | 0.00 | 90 | 1021.9 |
| 20260507081110 | -7 | 318 | 0.0 | 0.0 | 0.00 | 0.76 | 0.00 | 90 | 1022.0 |
| 20260507080110 | -7 | 359 | 0.0 | 0.0 | 0.00 | 0.76 | 0.00 | 90 | 1022.1 |
| 20260507075107 | -7 | 339 | 0.0 | 0.0 | 0.00 | 0.76 | 0.00 | 91 | 1021.9 |
| 20260507074106 | -7 | 335 | 0.0 | 0.0 | 0.00 | 0.76 | 0.00 | 90 | 1022.1 |
| 20260507073108 | -7 | 334 | 0.0 | 0.0 | 0.00 | 0.76 | 0.00 | 90 | 1022.2 |
| 20260507072107 | -7 | 359 | 0.0 | 0.0 | 0.00 | 0.79 | 0.00 | 89 | 1022.1 |
| 20260507071107 | -7 | 333 | 0.0 | 0.0 | 0.00 | 0.79 | 0.00 | 89 | 1022.0 |
| 20260507070548 | -7 | 334 | 0.0 | 0.0 | 0.00 | 0.79 | 0.00 | 89 | 1022.0 |
| 20260507065056 | -7 | 330 | 0.0 | 0.0 | 0.00 | 0.79 | 0.00 | 90 | 1022.1 |
| 20260507064101 | -7 | 332 | 0.0 | 0.0 | 0.00 | 0.79 | 0.00 | 88 | 1022.0 |
| 20260507063538 | -7 | 339 | 0.0 | 0.0 | 0.00 | 0.81 | 0.00 | 88 | 1022.0 |
| 20260507062538 | -7 | 359 | 0.0 | 0.0 | 0.00 | 0.81 | 0.00 | 89 | 1021.7 |
| 20260507061059 | -7 | 359 | 0.0 | 0.0 | 0.00 | 0.81 | 0.00 | 89 | 1021.7 |
| 20260507060050 | -7 | 342 | 0.0 | 0.0 | 0.00 | 0.81 | 0.00 | 89 | 1021.6 |
| 20260507055049 | -7 | 341 | 0.0 | 0.0 | 0.00 | 0.81 | 0.81 | 89 | 1021.5 |
| 20260507054049 | -6 | 359 | 0.0 | 0.0 | 0.00 | 0.81 | 0.81 | 89 | 1021.3 |
| 20260507053052 | -6 | 342 | 0.0 | 0.0 | 0.00 | 0.84 | 0.81 | 90 | 1021.3 |
| 20260507052047 | -6 | 359 | 0.0 | 0.0 | 0.00 | 0.84 | 0.81 | 90 | 1021.2 |
| 20260507051047 | -6 | 342 | 0.0 | 0.0 | 0.00 | 0.84 | 0.81 | 90 | 1021.3 |
| 20260507050045 | -6 | 343 | 0.0 | 0.0 | 0.00 | 0.84 | 0.81 | 91 | 1021.3 |
| 20260507045532 | -6 | 359 | 0.0 | 0.0 | 0.00 | 0.84 | 0.81 | 90 | 1021.5 |
| 20260507044042 | -6 | 349 | 0.0 | 0.0 | 0.00 | 0.84 | 0.81 | 90 | 1021.5 |
| 20260507043043 | -6 | 354 | 0.0 | 0.0 | 0.00 | 0.84 | 0.81 | 90 | 1021.2 |
| 20260507032731 | -6 | 120 | 0.0 | 0.0 | 0.00 | 0.84 | 0.81 | 90 | 1020.7 |
| 20260507031731 | -6 | 126 | 0.0 | 0.0 | 0.00 | 0.84 | 0.81 | 89 | 1020.6 |
| 20260507030730 | -6 | 127 | 0.0 | 0.0 | 0.00 | 0.84 | 0.81 | 89 | 1020.3 |
| 20260507025732 | -5 | 127 | 0.0 | 0.0 | 0.00 | 0.84 | 0.81 | 88 | 1020.4 |
| 20260507024733 | -5 | 127 | 0.0 | 0.0 | 0.00 | 0.84 | 0.81 | 88 | 1020.3 |
| 20260507023732 | -5 | 127 | 0.0 | 0.0 | 0.00 | 0.84 | 0.81 | 88 | 1020.2 |
| 20260507022732 | -4 | 127 | 0.0 | 0.0 | 0.00 | 0.84 | 0.81 | 88 | 1020.1 |
| 20260507021731 | -4 | 127 | 0.0 | 0.0 | 0.00 | 0.84 | 0.81 | 89 | 1020.1 |
| 20260507021215 | -3 | 127 | 0.0 | 0.0 | 0.00 | 0.84 | 0.81 | 88 | 1019.9 |
| 20260507020209 | -3 | 126 | 0.0 | 0.0 | 0.00 | 0.84 | 0.81 | 89 | 1020.1 |
| 20260507014731 | -3 | 127 | 0.0 | 0.0 | 0.00 | 0.84 | 0.81 | 89 | 1020.1 |
| 20260507014210 | -3 | 127 | 0.0 | 0.0 | 0.00 | 0.84 | 0.81 | 89 | 1020.1 |
| 20260507012731 | -2 | 127 | 0.0 | 0.0 | 0.00 | 0.86 | 0.81 | 89 | 1019.9 |
| 20260507011731 | -2 | 127 | 0.0 | 0.0 | 0.00 | 0.86 | 0.81 | 90 | 1019.8 |
| 20260507010731 | -2 | 127 | 0.0 | 0.0 | 0.00 | 0.86 | 0.81 | 90 | 1019.9 |
| 20260507005731 | -2 | 141 | 0.0 | 0.0 | 0.00 | 0.86 | 0.81 | 91 | 1019.7 |
| 20260507005208 | -2 | 133 | 0.0 | 0.0 | 0.00 | 0.86 | 0.81 | 90 | 1019.7 |
| 20260507003731 | -2 | 145 | 0.0 | 0.0 | 0.00 | 0.86 | 0.81 | 90 | 1019.5 |
| 20260507002730 | -2 | 163 | 0.0 | 0.0 | 0.00 | 0.86 | 0.81 | 90 | 1019.7 |
| 20260507001731 | -2 | 134 | 0.0 | 0.0 | 0.00 | 0.86 | 0.81 | 90 | 1019.5 |
| 20260507000736 | -2 | 185 | 0.0 | 0.0 | 0.00 | 0.86 | 0.81 | 91 | 1019.7 |
| 20260506235731 | -2 | 154 | 0.0 | 0.0 | 0.00 | 0.86 | 0.81 | 91 | 1019.5 |
| 20260506234733 | -2 | 148 | 0.0 | 0.0 | 0.00 | 0.89 | 0.81 | 91 | 1019.8 |
| 20260506234222 | -2 | 181 | 0.0 | 0.0 | 0.00 | 0.89 | 0.81 | 90 | 1019.7 |